Regional Weather Roundup
Issued by NWS

Home | Current Version | Previous Version | Text Only | Print | Product List | Glossary Off
Versions: 1 2 3 4 5 6 7 8 9 10 11 12 13 14 15 16 17 18 19 20 21 22 23 24 25 26 27 28 29 30 31 32 33 34 35 36 37 38 39 40 41 42 43 44 45 46 47 48 49 50

289
ASUS43 KOAX 270002
RWRNE

WEATHER ROUNDUP FOR NEBRASKA
NATIONAL WEATHER SERVICE OMAHA NE
700 PM CDT FRI MAY 26 2017

NOTES: SATELLITE DATA IS BEING USED TO AUGMENT CLOUD COVER ABOVE
       12000 FEET.
       "FAIR" INDICATES FEW OR NO CLOUDS BELOW 12,000 FEET WITH NO
       SIGNIFICANT WEATHER AND/OR OBSTRUCTIONS TO VISIBILITY.

  * THESE STATIONS DO NOT REPORT WEATHER SUCH AS RAIN...SNOW OR FOG.

NEZ001>004-019>022-054>056-270100-
NEBRASKA PANHANDLE

CITY           SKY/WX    TMP DP  RH WIND       PRES   REMARKS
SCOTTSBLUFF    CLOUDY    59  48  67 NE14      29.86F
6HR MIN TEMP:  58; 6HR MAX TEMP:  65; 6HR PCP:  0.04;

ALLIANCE       RAIN      56  51  84 E12       29.87F
6HR MIN TEMP:  55; 6HR MAX TEMP:  65; 6HR PCP:  0.06;

CHADRON        CLOUDY    57  44  62 N9        29.90S
6HR MIN TEMP:  56; 6HR MAX TEMP:  66; 6HR PCP: TRACE;

GORDON         LGT RAIN  61  45  57 SW8       29.94R
6HR MIN TEMP:  61; 6HR MAX TEMP:  67;

KIMBALL        LGT RAIN  53  47  78 NE16      29.87F
SIDNEY         LGT RAIN  62  48  60 SE17      29.83F
6HR MIN TEMP:  61; 6HR MAX TEMP:  68; 6HR PCP: TRACE;

$$

NEZ057>060-069>072-079>082-270100-
SOUTHWEST NEBRASKA

CITY           SKY/WX    TMP DP  RH WIND       PRES   REMARKS
NORTH PLATTE   SUNNY     71  48  43 E9        29.86S
6HR MIN TEMP:  69; 6HR MAX TEMP:  75;

IMPERIAL       CLOUDY    67  49  52 S6        29.89R
6HR MIN TEMP:  65; 6HR MAX TEMP:  72;

LEXINGTON      SUNNY     74  51  44 E5        29.86S
MCCOOK         MOSUNNY   74  48  39 SE10      29.84F
6HR MIN TEMP:  70; 6HR MAX TEMP:  78;

OGALLALA       CLOUDY    71  46  40 SE9       29.86F
$$

NEZ005>010-023>029-035>040-094-270100-
NORTH CENTRAL NEBRASKA

CITY           SKY/WX    TMP DP  RH WIND       PRES   REMARKS
VALENTINE      CLOUDY    73  38  27 N7        29.88R
6HR MIN TEMP:  67; 6HR MAX TEMP:  73;

AINSWORTH      CLOUDY    68  42  38 CALM      29.90R
BROKEN BOW     SUNNY     73  45  36 E9        29.87S
6HR MIN TEMP:  69; 6HR MAX TEMP:  74;

O`NEILL        MOSUNNY   71  40  32 N5        29.88S
ORD            SUNNY     73  42  32 N5        29.87R
6HR MIN TEMP:  69; 6HR MAX TEMP:  74;

THEDFORD       MOSUNNY   72  43  35 SE6       29.89S
$$

NEZ041-046>049-061>064-073>077-083>087-270100-
SOUTH CENTRAL NEBRASKA

CITY           SKY/WX    TMP DP  RH WIND       PRES   REMARKS
GRAND ISLAND   SUNNY     76  47  35 VRB6      29.85S
6HR MIN TEMP:  72; 6HR MAX TEMP:  78;

AURORA         SUNNY     78  43  28 CALM      29.84S
HASTINGS       SUNNY     78  46  32 NE6       29.85F
6HR MIN TEMP:  71; 6HR MAX TEMP:  79;

HEBRON         SUNNY     80  47  31 E5        29.82S
HOLDREGE       SUNNY     76  44  31 SE9       29.84F
KEARNEY *      SUNNY     75  46  35 SE8       29.86S
YORK           SUNNY     75  46  35 N5        29.84S
$$

NEZ011>018-030>034-042>045-270100-
NORTHEAST NEBRASKA

CITY           SKY/WX    TMP DP  RH WIND       PRES   REMARKS
NORFOLK        SUNNY     74  42  31 N9        29.83S
6HR MIN TEMP:  70; 6HR MAX TEMP:  76;

ALBION         SUNNY     75  42  29 N5        29.86R
BLAIR          SUNNY     78  49  36 N7        29.82R
FREMONT        SUNNY     79  45  30 N5        29.83R
TEKAMAH        SUNNY     79  46  31 N8        29.80S
6HR MIN TEMP:  74; 6HR MAX TEMP:  81;

WAYNE          SUNNY     74  45  34 N9        29.84S
$$

NEZ050>053-065>068-078-088>093-270100-
SOUTHEAST NEBRASKA

CITY           SKY/WX    TMP DP  RH WIND       PRES   REMARKS
LINCOLN        SUNNY     80  50  34 N6        29.82S
6HR MIN TEMP:  77; 6HR MAX TEMP:  82;

OMAHA EPPLEY   MOSUNNY   81  49  32 N5        29.80S
6HR MIN TEMP:  75; 6HR MAX TEMP:  81;

BEATRICE       SUNNY     81  49  33 NE6       29.82S
FALLS CITY     SUNNY     81  58  45 N7        29.78R
6HR MIN TEMP:  80; 6HR MAX TEMP:  85;

NEBRASKA CITY  SUNNY     80  40  23 N9        29.81S
PLATTSMOUTH    SUNNY     80  47  31 N5        29.81S
$$

NEZ044-045-051>053-067-270100-
OMAHA AREA

CITY           SKY/WX    TMP DP  RH WIND       PRES   REMARKS
OMAHA EPPLEY   MOSUNNY   81  49  32 N5        29.80S
6HR MIN TEMP:  75; 6HR MAX TEMP:  81;

BLAIR          SUNNY     78  49  36 N7        29.82R
FREMONT        SUNNY     79  45  30 N5        29.83R
MILLARD        SUNNY     81  51  35 NE5       29.81S
OFFUTT AFB     SUNNY     79  47  32 N7        29.80S
PLATTSMOUTH    SUNNY     80  47  31 N5        29.81S
WAHOO          FAIR      79  44  28 N8        29.82S
$$




USA.gov is the U.S. government's official web portal to all federal, state and local government web resources and services.